| time (UTC) | temp F | wind direction | speed knots | gust knots | rain 1hr in | rain 24hr in | rain mn in | humidity % | barometer mb |
| 20260507020108 | 36 | 0 | 0.0 | 2.6 | 0.00 | 0.00 | 0.00 | 71 | 1013.1 |
| 20260507014619 | 36 | 271 | 0.0 | 5.2 | 0.00 | 0.00 | 0.00 | 71 | 1013.0 |
| 20260507013056 | 36 | 290 | 0.0 | 3.5 | 0.00 | 0.00 | 0.00 | 70 | 1013.1 |
| 20260507011558 | 36 | 0 | 0.0 | 3.5 | 0.00 | 0.00 | 0.00 | 69 | 1013.0 |
| 20260507010055 | 37 | 209 | 0.0 | 4.3 | 0.00 | 0.00 | 0.00 | 69 | 1013.0 |
| 20260507004552 | 37 | 284 | 1.7 | 8.7 | 0.00 | 0.00 | 0.00 | 67 | 1013.0 |
| 20260507003054 | 37 | 216 | 0.9 | 6.1 | 0.00 | 0.00 | 0.00 | 67 | 1013.0 |
| 20260507001606 | 38 | 300 | 0.9 | 5.2 | 0.00 | 0.00 | 0.00 | 65 | 1013.0 |
| 20260507000123 | 38 | 275 | 1.7 | 7.0 | 0.00 | 0.00 | 0.00 | 64 | 1013.0 |
| 20260506234612 | 38 | 272 | 0.9 | 6.1 | 0.00 | 0.00 | 0.00 | 65 | 1013.0 |
| 20260506233053 | 38 | 267 | 0.9 | 4.3 | 0.00 | 0.00 | 0.00 | 65 | 1013.0 |
| 20260506231549 | 38 | 289 | 0.0 | 7.0 | 0.00 | 0.00 | 0.00 | 63 | 1013.2 |
| 20260506230103 | 39 | 285 | 0.9 | 6.1 | 0.00 | 0.00 | 0.00 | 60 | 1013.0 |
| 20260506224551 | 39 | 273 | 2.6 | 7.0 | 0.00 | 0.00 | 0.00 | 60 | 1013.0 |
| 20260506223051 | 39 | 0 | 0.9 | 7.8 | 0.00 | 0.00 | 0.00 | 59 | 1012.9 |
| 20260506221559 | 39 | 317 | 1.7 | 6.1 | 0.00 | 0.00 | 0.00 | 58 | 1013.1 |
| 20260506220052 | 40 | 0 | 0.9 | 7.0 | 0.00 | 0.00 | 0.00 | 59 | 1012.9 |
| 20260506214558 | 40 | 355 | 1.7 | 7.0 | 0.00 | 0.00 | 0.00 | 59 | 1013.1 |
| 20260506213059 | 39 | 298 | 2.6 | 11.3 | 0.00 | 0.00 | 0.00 | 59 | 1013.0 |
| 20260506211559 | 40 | 283 | 2.6 | 10.4 | 0.00 | 0.00 | 0.00 | 59 | 1013.0 |
| 20260506210055 | 40 | 229 | 1.7 | 9.6 | 0.00 | 0.00 | 0.00 | 57 | 1012.9 |
| 20260506204556 | 40 | 292 | 2.6 | 9.6 | 0.00 | 0.00 | 0.00 | 57 | 1013.0 |
| 20260506203054 | 41 | 209 | 1.7 | 11.3 | 0.00 | 0.00 | 0.00 | 58 | 1013.1 |
| 20260506201552 | 40 | 0 | 1.7 | 8.7 | 0.00 | 0.00 | 0.00 | 58 | 1013.2 |
| 20260506200056 | 41 | 279 | 0.9 | 6.1 | 0.00 | 0.00 | 0.00 | 58 | 1013.0 |
| 20260506194600 | 41 | 259 | 0.9 | 7.8 | 0.00 | 0.00 | 0.00 | 59 | 1013.0 |
| 20260506193057 | 40 | 283 | 3.5 | 12.2 | 0.00 | 0.00 | 0.00 | 58 | 1013.0 |
| 20260506191559 | 40 | 240 | 1.7 | 8.7 | 0.00 | 0.00 | 0.00 | 58 | 1013.0 |
| 20260506190055 | 40 | 295 | 2.6 | 7.8 | 0.00 | 0.00 | 0.00 | 58 | 1013.1 |
| 20260506184556 | 39 | 24 | 2.6 | 9.6 | 0.00 | 0.00 | 0.00 | 58 | 1013.0 |
| 20260506183102 | 39 | 38 | 1.7 | 11.3 | 0.00 | 0.00 | 0.00 | 58 | 1013.2 |
| 20260506181603 | 39 | 222 | 1.7 | 7.0 | 0.00 | 0.00 | 0.00 | 60 | 1013.2 |
| 20260506180059 | 39 | 304 | 2.6 | 7.0 | 0.00 | 0.00 | 0.00 | 59 | 1013.3 |
| 20260506174554 | 38 | 331 | 2.6 | 8.7 | 0.00 | 0.00 | 0.00 | 61 | 1013.3 |
| 20260506173119 | 37 | 269 | 1.7 | 7.0 | 0.00 | 0.00 | 0.00 | 66 | 1013.7 |
| 20260506171604 | 37 | 350 | 0.9 | 5.2 | 0.00 | 0.00 | 0.00 | 64 | 1013.7 |
| 20260506170104 | 36 | 261 | 2.6 | 8.7 | 0.00 | 0.00 | 0.00 | 66 | 1013.7 |
| 20260506164555 | 36 | 278 | 0.9 | 5.2 | 0.00 | 0.00 | 0.00 | 68 | 1014.0 |
| 20260506163056 | 36 | 21 | 0.9 | 6.1 | 0.00 | 0.00 | 0.00 | 68 | 1013.8 |
| 20260506161552 | 36 | 278 | 1.7 | 6.1 | 0.00 | 0.00 | 0.00 | 66 | 1013.9 |
| 20260506160055 | 36 | 221 | 0.9 | 8.7 | 0.00 | 0.00 | 0.00 | 65 | 1013.8 |
| 20260506154610 | 36 | 300 | 3.5 | 8.7 | 0.00 | 0.00 | 0.00 | 65 | 1013.8 |
| 20260506153051 | 35 | 256 | 1.7 | 7.0 | 0.00 | 0.00 | 0.00 | 67 | 1013.9 |
| 20260506151549 | 35 | 304 | 0.9 | 7.0 | 0.00 | 0.00 | 0.00 | 70 | 1013.8 |
| 20260506150051 | 35 | 281 | 1.7 | 7.0 | 0.00 | 0.00 | 0.00 | 68 | 1013.7 |
| 20260506144555 | 34 | 232 | 1.7 | 12.2 | 0.00 | 0.00 | 0.00 | 71 | 1013.7 |
| 20260506143051 | 34 | 303 | 2.6 | 9.6 | 0.00 | 0.00 | 0.00 | 70 | 1013.7 |
| 20260506141549 | 34 | 315 | 1.7 | 7.0 | 0.00 | 0.00 | 0.00 | 71 | 1013.8 |
| 20260506140054 | 33 | 209 | 1.7 | 8.7 | 0.00 | 0.00 | 0.00 | 71 | 1013.9 |
| 20260506134552 | 33 | 30 | 1.7 | 7.0 | 0.00 | 0.00 | 0.00 | 73 | 1013.7 |
| 20260506133102 | 32 | 226 | 0.9 | 8.7 | 0.00 | 0.00 | 0.00 | 74 | 1013.8 |
| 20260506131552 | 32 | 44 | 0.9 | 5.2 | 0.00 | 0.00 | 0.00 | 75 | 1013.6 |
| 20260506130110 | 31 | 297 | 1.7 | 9.6 | 0.00 | 0.00 | 0.00 | 75 | 1013.6 |
| 20260506124551 | 31 | 270 | 1.7 | 13.0 | 0.00 | 0.00 | 0.00 | 76 | 1013.7 |
| 20260506123054 | 31 | 278 | 0.9 | 6.1 | 0.00 | 0.00 | 0.00 | 77 | 1013.6 |
| 20260506121552 | 30 | 0 | 2.6 | 7.8 | 0.00 | 0.00 | 0.00 | 77 | 1013.3 |
| 20260506120054 | 30 | 26 | 0.9 | 4.3 | 0.00 | 0.00 | 0.00 | 77 | 1013.2 |
| 20260506114604 | 30 | 0 | 0.0 | 5.2 | 0.00 | 0.00 | 0.00 | 77 | 1012.9 |
| 20260506113052 | 30 | 307 | 0.0 | 5.2 | 0.00 | 0.00 | 0.00 | 77 | 1012.7 |
| 20260506111547 | 30 | 0 | 0.9 | 6.1 | 0.00 | 0.00 | 0.00 | 76 | 1012.7 |
| 20260506110054 | 30 | 53 | 0.0 | 3.5 | 0.00 | 0.00 | 0.00 | 76 | 1012.7 |
| 20260506104610 | 30 | 0 | 0.9 | 3.5 | 0.00 | 0.00 | 0.00 | 76 | 1012.7 |
| 20260506103055 | 30 | 0 | 0.0 | 7.0 | 0.00 | 0.00 | 0.00 | 76 | 1012.6 |
| 20260506101551 | 30 | 0 | 0.9 | 3.5 | 0.00 | 0.00 | 0.00 | 76 | 1012.7 |
| 20260506100054 | 30 | 290 | 0.0 | 4.3 | 0.00 | 0.00 | 0.00 | 76 | 1012.8 |
| 20260506094550 | 30 | 46 | 0.9 | 7.8 | 0.00 | 0.00 | 0.00 | 76 | 1012.6 |
| 20260506093052 | 30 | 273 | 1.7 | 7.0 | 0.00 | 0.00 | 0.00 | 76 | 1012.7 |
| 20260506091548 | 30 | 291 | 0.0 | 6.1 | 0.00 | 0.00 | 0.00 | 76 | 1012.7 |
| 20260506090051 | 30 | 294 | 0.0 | 1.7 | 0.00 | 0.00 | 0.00 | 76 | 1012.5 |
| 20260506084555 | 30 | 217 | 0.9 | 3.5 | 0.00 | 0.00 | 0.00 | 75 | 1012.6 |
| 20260506083051 | 30 | 36 | 1.7 | 6.1 | 0.00 | 0.00 | 0.00 | 76 | 1012.5 |
| 20260506081557 | 30 | 273 | 0.9 | 4.3 | 0.00 | 0.00 | 0.00 | 74 | 1012.5 |
| 20260506073057 | 30 | 288 | 0.0 | 6.1 | 0.00 | 0.00 | 0.00 | 74 | 1012.4 |
| 20260506071621 | 30 | 236 | 0.9 | 6.1 | 0.00 | 0.00 | 0.00 | 73 | 1012.5 |
| 20260506061556 | 31 | 0 | 0.9 | 5.2 | 0.00 | 0.00 | 0.00 | 71 | 1012.3 |
| 20260506044609 | 32 | 268 | 1.7 | 5.2 | 0.00 | 0.00 | 0.00 | 69 | 1012.0 |
| 20260506043056 | 32 | 43 | 0.9 | 8.7 | 0.00 | 0.00 | 0.00 | 68 | 1012.0 |
| 20260506041554 | 33 | 304 | 1.7 | 8.7 | 0.00 | 0.00 | 0.00 | 68 | 1012.3 |
| 20260506040053 | 33 | 30 | 0.9 | 8.7 | 0.00 | 0.00 | 0.00 | 69 | 1012.0 |
| 20260506034552 | 33 | 269 | 0.9 | 7.8 | 0.00 | 0.00 | 0.00 | 68 | 1012.2 |
| 20260506033052 | 33 | 300 | 1.7 | 11.3 | 0.00 | 0.00 | 0.00 | 67 | 1011.9 |
| 20260506031555 | 33 | 292 | 0.9 | 3.5 | 0.00 | 0.00 | 0.00 | 68 | 1012.0 |
| 20260506030056 | 33 | 355 | 0.9 | 4.3 | 0.00 | 0.00 | 0.00 | 67 | 1012.0 |
| 20260506024555 | 33 | 355 | 0.9 | 7.0 | 0.00 | 0.00 | 0.00 | 67 | 1011.8 |
| 20260506023055 | 34 | 308 | 0.9 | 6.1 | 0.00 | 0.00 | 0.00 | 67 | 1011.8 |
| 20260506021558 | 34 | 277 | 1.7 | 8.7 | 0.00 | 0.00 | 0.00 | 67 | 1011.6 |